Regional Weather Roundup
Issued by NWS Northern Indiana

Home | Current Version | Previous Version | Text Only | Print | Product List | Glossary Off
Versions: 1 2 3 4 5 6 7 8 9 10 11 12 13 14 15 16 17 18 19 20 21 22 23 24 25 26 27 28 29 30 31 32 33 34 35 36 37 38 39 40 41 42 43 44 45 46 47 48 49 50

000
ASUS43 KIWX 262300
RWRIWX

KIWX WEATHER ROUNDUP
NATIONAL WEATHER SERVICE NORTHERN INDIANA
700 PM EDT FRI AUG 26 2016

NOTE: "FAIR" INDICATES FEW OR NO CLOUDS BELOW 12,000 FEET WITH NO
SIGNIFICANT WEATHER AND/OR OBSTRUCTIONS TO VISIBILITY.

* THESE STATIONS ARE NOT UNDER NWS QUALITY CONTROL. THEY ALSO MAY NOT
  REPORT WEATHER SUCH AS PRECIPITATION OR FOG.

INZ001>027-270000-
NORTHERN INDIANA

CITY           SKY/WX    TMP DP  RH WIND       PRES   REMARKS
GARY*          PTSUNNY   75  68  78 NE7       30.12F
KNOX*          CLOUDY    75  46  35 NE6       30.10F
SOUTH BEND     CLOUDY    80  66  62 NW3       30.12S
GOSHEN         CLOUDY    78  65  63 NE5       30.11F
MONTICELLO*    LGT RAIN  78  69  75 NE3       30.08S
ANGOLA*        SUNNY     79  70  73 CALM      30.13F
FORT WAYNE     CLOUDY    81  66  60 SE3       30.11S
PERU/GRISSOM   CLOUDY    77  73  88 NE6       30.08F

$$
INZ028>050-270000-
CENTRAL INDIANA

CITY           SKY/WX    TMP DP  RH WIND       PRES   REMARKS
LAFAYETTE      CLOUDY    78  72  81 NE6       30.06F
KOKOMO*        CLOUDY    77  73  88 NE6       30.10R
MUNCIE*        CLOUDY    82  74  76 NE3       30.11R
INDIANAPOLIS   TSTM      73  71  93 E12       30.13R FOG

$$
MIZ043>046-050>051-056>058-064>065-071>073-077>080-270000-
SOUTHWEST LOWER MICHIGAN

CITY           SKY/WX    TMP DP  RH WIND       PRES   REMARKS
BATTLE CREEK   MOSUNNY   79  64  60 N7        30.14S
BENTON HARBOR  MOSUNNY   74  61  63 CALM      30.13S
COLDWATER*     CLOUDY    78  64  60 N3        30.13S
HILLSDALE*     MOSUNNY   78  67  68 CALM      30.14S
HOLLAND        SUNNY     73  60  63 VRB3      30.15S
GRAND RAPIDS   PTSUNNY   77  58  51 NW9       30.14R
KALAMAZOO      MOSUNNY   81  62  52 NW5       30.13S
STURGIS*       MOSUNNY   78  67  68 NE3       30.12S

$$
OHZ001>008-015>018-024>025-270000-
NORTHWEST OHIO

CITY           SKY/WX    TMP DP  RH WIND       PRES   REMARKS
DEFIANCE       CLOUDY    81  68  64 CALM      30.12S
FINDLAY        SUNNY     83  62  49 CALM      30.11S
TOLEDO EXPRESS MOSUNNY   82  63  52 NW6       30.12R
TOLEDO METCALF SUNNY     83  64  52 S5        30.12R
LIMA           SUNNY     81  70  69 NE5       30.12S

$$
AND FOR LAKE MICHIGAN COASTAL AND OPEN LAKE BUOY OBSERVATIONS

STATION/POSITION TEMP    WIND        PRES    VSBY  WAVE
                 AIR SEA DIR/SP/G                  HT/PER
                 (F)     (DEG/KT/KT) (MB)    (MI)  (FT/S)
CALUMET HARBOR    73                 1019.7R
MICHIGAN CITY     73      10/ 12/ 12   N/A
BURNS HARBOR      74      50/ 10/ 13 1020.3S
SAINT JOSEPH      74      10/ 10/ 13 1021.3R
SOUTH LAKE BUOY   71 76   60/  6/  8 1020.1          1
4 MI NW BRIDGMAN  73 75   20/ 12/ 14 1019.8S         2/ 4
MICHIGAN CITY     74 75   40/ 10/ 12   N/A           2/ 4

$$
&&




USA.gov is the U.S. government's official web portal to all federal, state and local government web resources and services.